Temp
28 30 31 31 30 30 30 30 30 31 31 31 32 31 30 28 28 28 28 26 26 26 23 23 22 21 21 21 22 22 22 22 22 22 20 21 21 23 22 22 22 22 22 21
29 30 30 28 28 29 29 30 31 32 30 31 31 32 30 28 28 28 29 28 26 25 24 24 21 21 21 21 23 24 22 22 22 23 22 21 21 21 21 21 21 20 21 21
29 30 27 29 29 29 30 30 30 31 31 30 30 32 31 28 26 27 27 27 27 26 25 24 21 21 22 21 23 22 22 23 23 23 21 20 21 20 20 19 19 20 20 20
29 30 29 29 29 30 30 30 31 31 31 32 29 33 31 30 29 27 28 28 28 26 24 24 22 21 21 22 22 21 22 22 23 22 20 20 20 20 19 18 18 18 18 18
30 29 29 29 30 30 31 30 30 30 31 30 31 32 34 28 31 31 28 28 28 27 26 25 23 22 22 20 22 20 21 21 22 21 20 20 20 19 18 18 18 18 18 18
30 30 30 31 31 31 31 30 29 28 30 31 31 31 33 33 30 30 29 28 28 27 26 25 23 21 22 22 21 22 22 20 21 20 21 20 20 19 19 17 17 17 18 18
29 30 31 31 30 30 30 31 31 31 31 31 27 29 32 31 29 29 29 29 28 28 26 25 23 22 22 22 22 21 23 20 21 20 20 20 20 18 18 18 18 18 18 19
29 30 29 30 31 32 31 32 32 30 30 31 27 31 33 28 27 27 28 28 28 27 26 25 23 22 22 22 22 21 21 20 20 19 19 20 19 18 18 18 18 18 17 18
29 29 30 29 31 32 29 30 30 29 25 30 31 31 31 27 28 27 28 27 27 27 24 24 23 22 22 22 22 22 20 19 19 19 20 19 19 18 18 18 18 18 17 17
29 29 30 31 31 29 31 29 31 30 29 30 30 29 32 30 30 28 26 27 27 25 25 24 23 23 22 21 21 20 20 20 19 19 19 18 18 18 18 18 18 17 17 17
29 29 30 30 31 32 30 31 28 30 29 32 31 32 31 31 31 30 27 27 26 25 24 24 24 23 22 21 20 21 20 20 20 19 19 19 18 18 18 18 17 17 17 17
29 28 29 31 30 30 30 31 30 32 29 28 30 33 29 28 27 28 27 27 25 25 24 24 23 22 21 20 22 22 21 21 20 19 19 19 18 18 18 18 17 17 17 17
27 28 29 30 30 29 30 29 29 27 28 28 31 33 28 27 26 26 27 26 24 23 24 24 24 22 21 21 22 22 21 21 20 19 19 19 19 18 18 17 17 17 17 16
27 26 29 31 31 31 30 29 28 30 31 30 31 32 33 30 27 26 25 25 24 23 23 24 24 21 22 22 23 22 21 21 20 20 20 19 19 18 18 17 16 17 17 16
28 28 27 29 28 29 32 31 29 30 31 32 33 31 33 31 29 28 26 25 24 23 23 24 24 23 23 22 22 22 22 21 20 20 20 20 19 18 17 16 17 16 16 16
24 28 26 29 29 29 30 31 31 31 30 29 30 30 31 27 25 25 25 25 24 23 24 23 24 23 23 22 22 22 22 21 20 20 20 19 18 18 17 16 15 15 15 15
26 27 27 29 28 29 30 31 31 31 31 32 31 32 27 28 26 25 25 25 24 22 24 23 23 23 22 22 22 21 21 20 20 20 20 19 18 17 16 15 15 15 14 15
25 25 26 29 27 28 30 28 29 30 29 29 29 27 25 24 22 22 23 24 23 22 23 22 21 19 18 18 18 18 19 19 20 20 19 19 19 17 16 15 15 15 14 14
23 25 26 27 28 28 29 27 28 29 30 26 26 26 24 23 24 20 18 22 22 21 19 17 16 16 15 16 16 16 17 17 17 19 19 18 18 16 16 15 14 13 13 13
23 22 27 25 27 27 30 25 24 24 30 25 24 25 25 25 28 22 16 16 15 15 14 14 14 14 14 14 15 15 16 16 16 15 16 17 17 16 15 14 13 12 13 12
25 24 26 27 27 27 26 24 23 28 29 23 23 24 24 24 20 15 14 14 13 13 13 13 13 12 12 13 13 14 14 13 13 13 15 16 16 15 14 13 12 12 12 11
25 25 26 25 26 26 22 23 26 23 22 21 20 21 18 16 15 15 14 14 13 13 13 13 12 11 12 12 12 12 12 11 12 13 13 14 14 14 13 12 12 11 11 10
23 24 26 25 27 21 20 21 19 19 20 19 18 19 17 16 16 15 15 15 15 15 14 13 12 11 11 11 11 11 11 11 12 12 11 11 11 11 11 11 10 10 10 9
20 19 22 22 22 22 21 21 20 20 19 19 18 17 18 18 18 18 18 17 15 13 13 12 11 11 10 10 11 10 10 11 11 10 10 10 10 9 10 10 10 11 10 9
21 20 21 22 22 21 21 21 20 19 18 18 18 18 18 19 19 18 17 15 14 13 12 13 12 11 10 10 10 10 10 10 10 9 9 9 9 9 9 9 9 9 9 9
20 20 21 23 20 21 21 20 20 19 19 18 18 18 18 18 18 17 15 14 14 13 12 11 11 10 9 9 10 10 10 10 10 9 8 8 8 8 8 8 8 8 9 9
Height
783 789 794 790 791 793 797 801 803 789 781 786 781 780 775 773 776 777 776 779 785 790 795 793 793 795 797 799 799 803 803 803 806 809 813 815 814 815 817 817 817 818 818 819
789 793 783 788 793 796 800 802 797 785 784 784 781 778 774 774 773 774 772 776 783 787 788 790 792 794 797 796 797 793 800 801 803 805 809 812 814 814 814 815 815 814 814 813
792 786 783 786 794 800 798 800 799 798 787 785 787 782 778 773 773 773 773 776 778 781 786 788 791 792 794 793 792 794 798 798 800 802 806 810 813 812 812 812 812 811 810 808
788 776 785 792 795 792 801 787 789 793 795 802 794 803 783 775 773 773 771 770 771 778 782 784 788 789 788 790 793 793 798 798 798 801 805 808 810 810 811 810 809 808 806 805
786 784 788 794 788 783 789 785 789 790 795 799 798 797 773 779 771 764 765 763 764 771 774 778 783 784 787 792 790 794 793 795 797 802 806 807 808 808 808 808 807 804 803 801
779 771 774 775 776 776 777 787 794 798 796 807 796 798 782 771 771 763 760 759 760 765 773 776 779 781 783 786 791 790 791 792 798 803 806 808 808 807 807 806 804 804 802 800
785 776 769 769 782 779 783 791 808 815 814 810 806 805 779 766 767 764 761 757 758 763 770 774 777 780 783 784 786 789 790 794 798 803 807 809 808 810 810 807 805 804 801 799
793 793 777 768 772 777 783 783 799 826 819 806 807 801 773 768 765 762 756 755 756 764 768 773 777 780 782 784 787 791 792 796 800 805 809 809 810 811 810 808 806 803 801 798
793 789 766 766 764 766 788 790 781 806 823 809 794 785 765 767 762 762 757 758 760 764 771 774 778 779 783 785 788 795 797 800 803 806 809 811 811 811 811 809 807 803 802 799
777 792 771 764 761 770 771 775 792 795 820 820 801 802 781 769 759 758 762 762 765 769 770 774 777 780 783 787 792 796 798 802 805 806 809 812 811 811 811 811 808 805 802 800
771 779 778 768 771 772 780 780 789 787 797 796 804 787 757 757 749 752 759 759 766 770 774 776 777 780 782 787 793 797 799 803 806 807 811 811 811 813 813 811 808 805 803 800
768 778 788 775 766 763 767 772 775 784 802 802 795 779 752 753 752 752 755 760 768 771 775 776 778 781 779 786 791 796 800 803 804 808 809 809 811 812 814 813 810 807 804 802
769 779 788 781 771 770 771 771 772 785 784 796 793 775 752 752 752 753 752 759 768 771 773 774 775 779 784 784 787 796 799 802 804 807 807 808 811 812 813 813 811 809 806 804
759 778 774 775 769 761 773 773 775 770 778 783 775 764 746 747 750 751 756 758 766 769 770 771 773 775 776 781 787 794 797 801 804 805 806 809 812 813 813 812 811 809 809 807
760 772 776 766 766 764 758 761 770 770 763 769 757 763 744 740 742 742 750 758 764 768 769 771 774 776 776 783 788 793 796 800 802 802 806 809 810 814 814 812 811 811 810 810
767 769 773 768 762 762 765 758 758 760 763 765 760 758 737 741 745 744 747 755 761 767 769 774 774 779 781 783 788 792 794 797 799 803 806 807 808 812 813 813 812 812 811 810
767 768 772 773 769 763 772 755 755 753 750 748 761 744 745 742 748 752 750 751 759 767 769 775 776 778 782 786 789 793 796 798 799 803 805 806 807 810 811 813 814 814 813 811
772 773 775 770 773 791 755 750 749 751 750 748 747 750 752 752 755 753 752 752 758 764 768 773 777 780 785 790 792 794 795 798 799 800 803 804 807 809 811 814 814 814 816 814
772 768 774 777 773 768 757 757 755 754 754 753 752 751 752 753 751 761 763 758 759 764 771 777 779 781 785 790 794 796 795 796 798 798 801 802 805 807 809 813 816 816 816 816
770 772 766 781 779 783 751 757 757 757 759 753 753 749 748 748 751 760 769 769 770 772 775 778 781 784 786 791 795 798 799 798 798 797 797 799 801 806 809 812 815 816 817 818
769 773 769 770 771 762 755 758 758 769 758 752 750 748 750 750 757 768 771 773 774 776 779 781 784 787 790 795 795 798 802 802 800 799 796 797 800 803 805 808 813 814 816 818
762 767 768 771 773 778 760 758 762 761 755 756 757 754 759 764 765 767 771 774 776 777 777 779 784 792 787 793 797 800 802 801 800 799 798 799 800 802 803 807 810 813 816 820
767 761 754 759 753 759 760 761 762 763 761 762 764 762 765 767 767 769 773 777 778 776 779 774 766 783 792 790 795 800 804 801 800 799 801 803 804 804 804 807 810 815 815 819
765 766 763 762 758 757 758 757 759 760 760 759 762 766 766 766 768 769 772 776 780 783 784 787 778 778 787 794 796 799 801 800 801 802 804 806 807 808 810 812 814 816 819 820
763 765 762 759 756 758 755 755 758 760 761 761 763 766 767 768 769 773 777 781 783 785 786 786 784 781 788 794 797 797 799 801 804 806 808 810 810 811 814 817 819 819 823 824
766 766 764 758 760 758 756 756 758 760 761 763 765 767 769 770 772 775 779 782 782 784 785 785 787 788 788 794 797 798 801 804 806 809 812 815 816 818 819 819 821 824 826 828
Wind_Speed
2 4 7 5 3 4 2 3 5 4 4 4 6 7 6 6 7 8 10 10 7 6 4 3 4 7 11 10 12 8 12 14 14 9 7 9 10 10 12 14 15 18 19 20
3 8 6 3 4 3 2 3 5 6 2 4 5 7 4 4 6 9 12 9 6 5 5 5 5 11 12 12 11 14 12 12 9 7 4 4 4 6 8 10 11 11 15 18
6 2 2 9 5 5 5 6 2 4 5 1 4 4 4 3 7 8 10 6 8 7 8 8 6 8 11 14 15 14 11 11 6 2 2 5 5 4 7 6 7 10 11 12
6 5 5 3 4 7 3 6 6 6 4 2 2 3 4 4 10 7 10 12 13 12 9 10 9 8 10 12 12 8 6 6 8 4 3 2 1 4 4 8 9 10 10 12
3 5 8 7 6 11 2 2 3 2 2 2 4 4 2 4 4 3 9 14 15 13 12 11 12 12 8 10 17 9 12 12 10 5 3 3 5 5 7 9 10 8 7 9
4 2 3 3 4 8 2 1 3 2 0 4 1 3 4 4 1 6 2 10 14 13 11 8 10 11 9 3 3 3 4 9 9 5 4 5 6 7 8 10 11 10 7 7
4 13 5 6 5 4 4 2 2 3 4 5 4 2 5 5 4 9 9 7 10 11 11 11 8 10 11 6 3 1 2 4 2 4 2 4 6 6 6 8 8 11 10 7
4 3 7 6 14 6 9 7 4 3 3 1 3 4 2 4 6 10 12 6 8 9 10 8 10 11 11 9 5 3 4 7 7 5 2 4 5 4 5 7 9 9 11 10
4 3 2 5 3 9 5 5 2 5 1 3 1 3 9 5 9 7 7 6 8 6 8 9 11 11 9 8 7 6 6 9 10 7 4 4 4 6 7 7 9 10 11 11
4 3 1 2 5 5 4 9 3 1 4 5 2 4 5 5 11 10 8 8 6 10 9 8 10 10 9 7 6 9 12 11 9 7 5 4 3 5 6 7 9 10 10 10
5 4 2 3 3 6 4 3 4 2 2 4 3 3 4 9 10 10 9 10 7 9 9 9 11 13 14 13 10 11 11 11 10 7 5 4 4 4 5 6 8 10 10 11
7 3 5 10 1 1 1 2 5 4 5 1 3 5 4 7 8 8 10 9 6 7 9 8 12 14 18 18 15 11 9 10 8 7 6 5 2 2 4 6 8 9 11 12
8 4 3 3 4 4 5 5 4 3 1 6 4 5 2 5 7 9 11 10 8 8 10 8 10 13 12 16 15 11 10 8 8 8 7 5 2 1 2 4 7 9 10 13
8 3 5 6 1 3 4 5 6 5 4 5 6 7 7 7 9 11 12 11 10 8 9 10 11 11 16 12 14 12 11 9 9 8 6 6 4 1 1 4 6 10 12 14
4 3 4 7 8 7 6 7 11 8 2 6 2 6 7 6 8 12 13 11 11 10 9 9 10 8 13 12 12 10 9 9 9 9 9 8 5 4 3 4 7 9 10 13
0 2 3 2 2 5 5 10 12 10 4 9 4 7 4 4 2 9 12 13 12 12 11 10 10 6 7 11 12 12 13 12 10 10 10 8 7 7 6 6 7 8 10 12
1 3 3 4 2 2 4 7 8 5 7 5 6 2 6 6 7 5 7 9 8 9 9 8 7 9 6 6 7 9 9 9 11 10 9 9 9 11 10 9 7 8 9 13
2 2 1 3 2 8 2 3 3 4 1 2 4 5 6 5 5 8 4 8 8 8 9 9 9 9 6 4 3 2 3 6 9 12 11 10 12 12 13 12 11 10 8 11
7 2 2 4 8 3 4 1 2 2 5 2 4 3 2 4 7 7 9 5 8 10 10 9 11 11 10 7 5 2 2 3 4 8 14 15 15 17 18 15 11 10 9 11
5 2 6 3 8 12 3 4 2 4 5 1 4 4 5 7 6 3 5 8 10 14 14 14 14 12 11 7 5 2 2 2 2 4 8 12 18 19 18 17 12 10 10 12
6 4 12 7 6 3 2 3 1 8 1 3 2 4 7 4 2 8 8 8 12 15 15 15 14 12 10 5 5 3 0 1 2 3 3 13 20 21 20 18 14 13 13 14
9 8 6 4 7 10 2 3 5 3 3 2 2 3 7 10 11 11 10 11 13 16 17 16 16 9 11 6 4 3 1 1 1 2 3 9 15 20 20 18 18 15 14 12
4 3 4 6 4 2 1 0 1 4 6 3 3 4 10 12 9 12 10 12 14 16 13 18 27 19 9 9 6 4 1 3 5 7 7 7 10 14 17 19 19 15 16 18
2 1 2 3 4 3 2 3 3 3 4 4 4 7 9 8 10 10 10 8 6 4 1 6 17 20 14 8 9 8 5 6 7 10 11 11 13 14 14 14 14 17 15 16
2 2 2 3 4 3 7 5 2 1 2 1 5 7 7 6 7 8 7 4 5 6 9 9 12 17 15 9 8 8 7 7 10 11 12 13 16 17 17 15 13 13 12 12
1 3 2 1 7 4 3 2 0 1 2 3 6 5 4 6 6 6 5 7 9 9 8 10 11 12 13 9 9 8 7 8 12 13 11 10 13 17 18 18 18 12 10 8
Wind_Direction
67 216 230 243 183 132 99 303 297 273 302 278 314 303 318 217 219 214 216 207 185 136 143 160 198 157 143 142 150 176 188 194 196 188 209 229 237 252 265 268 266 266 263 256
165 249 241 152 164 187 208 258 273 303 12 273 315 304 283 249 237 233 231 215 189 159 166 148 157 175 181 176 168 156 156 158 171 187 231 254 264 281 280 298 299 281 277 265
218 354 99 171 158 195 221 238 232 300 327 37 316 283 277 240 254 234 235 219 198 187 188 184 176 187 206 199 176 146 150 126 123 94 279 280 284 308 312 311 302 291 283 273
242 224 180 166 225 201 229 215 264 292 303 290 299 290 265 265 281 243 235 215 202 188 190 182 191 202 195 189 181 131 141 99 75 49 114 148 286 344 315 312 299 291 278 270
212 192 196 208 232 187 124 196 321 344 198 260 190 252 255 285 324 317 215 220 214 192 188 189 196 211 202 160 155 130 92 62 54 73 90 56 19 355 338 331 320 318 309 290
256 236 219 204 163 191 98 160 68 65 219 252 188 273 246 255 259 299 347 231 218 199 182 193 211 221 219 187 178 173 59 45 32 73 42 24 17 8 358 354 344 326 322 316
255 247 218 200 232 201 176 188 248 205 202 250 75 235 274 268 265 267 293 286 227 194 179 193 200 212 219 202 249 240 172 80 32 112 77 35 35 14 3 2 353 342 338 333
221 222 183 176 218 219 194 202 217 241 213 33 129 237 250 286 288 281 277 262 213 188 179 170 195 203 215 213 231 276 150 134 153 144 113 82 50 29 12 3 355 357 346 341
190 256 280 224 168 206 150 195 71 117 72 252 252 264 266 258 264 272 260 218 200 181 151 165 176 185 189 190 205 220 154 155 158 152 129 119 69 34 10 4 3 10 355 353
182 259 158 334 155 67 241 141 165 137 189 227 197 270 263 255 248 233 224 227 151 118 127 142 154 161 155 162 172 177 160 156 157 146 147 144 82 35 6 357 12 19 9 5
158 234 204 282 187 216 157 181 68 116 292 240 234 232 214 245 250 234 205 215 137 134 119 136 143 155 146 153 156 149 149 158 161 145 162 131 73 16 2 9 23 22 18 21
182 164 218 239 44 46 191 229 186 238 190 211 294 253 177 248 266 223 208 173 117 128 147 141 149 146 143 144 145 152 160 163 160 162 153 132 103 25 8 22 34 36 36 43
173 203 226 196 165 143 226 201 195 121 149 194 244 265 180 261 249 208 202 172 136 131 155 154 136 131 145 147 136 160 168 169 169 169 162 157 168 122 48 44 53 48 51 57
145 158 233 264 43 110 173 188 192 226 176 161 230 284 280 262 247 208 194 178 164 154 161 164 159 167 158 141 156 168 172 177 179 175 173 185 195 219 96 89 78 74 67 70
182 222 206 265 246 240 230 180 180 215 215 236 220 216 268 269 262 226 191 176 179 176 178 184 176 174 148 158 165 178 182 183 187 182 193 197 182 205 161 128 104 89 86 81
119 185 171 244 267 187 232 241 231 221 193 263 264 264 288 323 329 185 187 187 187 181 187 190 175 172 178 168 183 193 194 191 192 199 208 186 167 187 168 166 127 110 103 94
288 167 179 233 342 197 229 231 210 210 204 196 209 304 351 320 326 298 202 165 180 182 190 182 168 160 173 190 209 213 213 200 198 213 208 191 183 184 179 166 146 131 119 114
288 134 234 219 200 227 88 342 257 248 102 232 295 342 339 327 58 47 24 168 160 157 160 157 144 113 80 60 70 150 173 208 213 212 210 195 194 181 176 177 166 148 136 123
217 204 195 233 219 304 153 74 169 201 190 12 294 291 56 127 143 63 27 71 122 127 115 115 108 106 94 70 51 65 118 160 195 216 218 209 200 182 182 179 168 147 134 126
164 251 237 170 236 236 189 132 326 184 223 178 276 255 176 163 199 127 71 80 87 96 103 105 99 95 87 80 91 60 310 276 259 244 229 206 198 192 182 176 168 152 133 128
189 199 216 205 234 240 152 336 168 211 219 349 263 212 194 189 65 117 115 95 96 101 102 100 93 87 74 60 91 81 11 307 320 285 240 192 197 190 177 167 164 154 143 138
190 194 202 195 223 236 64 143 221 3 329 312 254 187 146 132 133 136 138 136 133 130 127 124 110 93 108 97 95 124 135 30 60 66 132 174 184 183 171 162 156 149 142 138
209 277 217 224 206 77 131 303 279 278 281 258 230 199 159 154 160 160 156 151 165 172 172 155 135 128 115 111 121 116 156 106 94 99 109 133 153 156 155 155 148 145 144 140
185 191 241 220 168 243 262 253 250 263 283 292 216 185 186 185 174 171 163 152 145 138 193 155 112 113 104 106 118 126 114 95 100 107 113 125 134 131 132 136 141 143 144 144
11 187 175 270 245 254 250 252 296 296 313 181 163 179 195 190 161 143 143 156 160 145 135 128 113 108 110 108 103 97 99 108 114 115 118 123 124 127 126 124 120 124 134 150
325 15 271 26 350 334 41 13 268 309 23 111 153 144 136 163 153 142 114 129 133 118 99 87 92 98 100 105 99 99 107 124 126 115 113 114 120 121 121 116 106 104 114 130